| time (UTC) | temp F | wind direction | speed MPH | gust MPH | rain 1hr in | rain 24hr in | rain mn in | humidity % | barometer mb |
| 20260906002554 | 63 | 0.0 | 0.0 | 0.00 | 0.00 | 0.00 | 81 | 1018.7 | |
| 20260906002054 | 63 | 0.0 | 0.0 | 0.00 | 0.00 | 0.00 | 79 | 1018.6 | |
| 20260906001554 | 64 | 0.0 | 0.0 | 0.00 | 0.00 | 0.00 | 77 | 1018.6 | |
| 20260906001054 | 64 | 0.0 | 0.0 | 0.00 | 0.00 | 0.00 | 76 | 1018.7 | |
| 20260906000554 | 65 | 0.0 | 0.0 | 0.00 | 0.00 | 0.00 | 74 | 1018.5 | |
| 20260906000054 | 65 | 0.0 | 0.0 | 0.00 | 0.00 | 0.00 | 74 | 1018.5 | |
| 20260905235554 | 65 | 0.0 | 0.0 | 0.00 | 0.00 | 0.00 | 74 | 1018.5 | |
| 20260905235054 | 65 | 0.0 | 0.0 | 0.00 | 0.00 | 0.00 | 74 | 1018.5 | |
| 20260905234554 | 65 | 0.0 | 0.0 | 0.00 | 0.00 | 0.00 | 75 | 1018.4 | |
| 20260905234054 | 64 | 0.0 | 0.0 | 0.00 | 0.00 | 0.00 | 77 | 1018.6 | |
| 20260905233554 | 65 | 0.0 | 0.0 | 0.00 | 0.00 | 0.00 | 75 | 1018.6 | |
| 20260905233054 | 64 | 0.0 | 0.0 | 0.00 | 0.00 | 0.00 | 75 | 1018.6 | |
| 20260905232554 | 65 | 0.0 | 0.0 | 0.00 | 0.00 | 0.00 | 74 | 1018.5 | |
| 20260905232054 | 65 | 0.0 | 0.0 | 0.00 | 0.00 | 0.00 | 72 | 1018.6 | |
| 20260905231554 | 66 | 0.0 | 0.0 | 0.00 | 0.00 | 0.00 | 72 | 1018.5 | |
| 20260905231054 | 66 | 0.0 | 0.0 | 0.00 | 0.00 | 0.00 | 72 | 1018.6 | |
| 20260905230554 | 65 | 0.0 | 0.0 | 0.00 | 0.00 | 0.00 | 73 | 1018.5 | |
| 20260905230054 | 65 | 0.0 | 0.0 | 0.00 | 0.00 | 0.00 | 76 | 1018.5 | |
| 20260905225554 | 64 | 0.0 | 0.0 | 0.00 | 0.00 | 0.00 | 79 | 1018.5 | |
| 20260905225054 | 64 | 0.0 | 0.0 | 0.00 | 0.00 | 0.00 | 78 | 1018.4 | |
| 20260905224554 | 64 | 0.0 | 0.0 | 0.00 | 0.00 | 0.00 | 78 | 1018.3 | |
| 20260905224054 | 64 | 0.0 | 0.0 | 0.00 | 0.00 | 0.00 | 77 | 1018.3 | |
| 20260905223554 | 64 | 0.0 | 0.0 | 0.00 | 0.00 | 0.00 | 78 | 1018.3 | |
| 20260905223054 | 64 | 0.0 | 0.0 | 0.00 | 0.00 | 0.00 | 79 | 1018.3 | |
| 20260905222554 | 64 | 0.0 | 0.0 | 0.00 | 0.00 | 0.00 | 79 | 1018.3 | |
| 20260905222054 | 63 | 0.0 | 0.0 | 0.00 | 0.00 | 0.00 | 79 | 1018.4 | |
| 20260905221554 | 63 | 0.0 | 0.0 | 0.00 | 0.00 | 0.00 | 78 | 1018.4 | |
| 20260905221054 | 65 | 0.0 | 0.0 | 0.00 | 0.00 | 0.00 | 74 | 1018.3 | |
| 20260905220554 | 65 | 0.0 | 0.0 | 0.00 | 0.00 | 0.00 | 72 | 1018.2 | |
| 20260905220054 | 66 | 0.0 | 0.0 | 0.00 | 0.00 | 0.00 | 71 | 1018.1 | |
| 20260905215554 | 66 | 0.0 | 0.0 | 0.00 | 0.00 | 0.00 | 73 | 1018.1 | |
| 20260905215054 | 65 | 0.0 | 0.0 | 0.00 | 0.00 | 0.00 | 75 | 1018.0 | |
| 20260905214554 | 65 | 0.0 | 0.0 | 0.00 | 0.00 | 0.00 | 75 | 1017.9 | |
| 20260905214054 | 65 | 0.0 | 0.0 | 0.00 | 0.00 | 0.00 | 73 | 1018.0 | |
| 20260905213554 | 66 | 0.0 | 0.0 | 0.00 | 0.00 | 0.00 | 70 | 1018.0 | |
| 20260905213054 | 65 | 0.0 | 0.0 | 0.00 | 0.00 | 0.00 | 75 | 1017.9 | |
| 20260905212554 | 65 | 0.0 | 0.0 | 0.00 | 0.00 | 0.00 | 76 | 1018.0 | |
| 20260905212054 | 64 | 0.0 | 0.0 | 0.00 | 0.00 | 0.00 | 76 | 1018.0 | |
| 20260905211554 | 65 | 0.0 | 0.0 | 0.00 | 0.00 | 0.00 | 74 | 1017.9 | |
| 20260905211054 | 66 | 0.0 | 0.0 | 0.00 | 0.00 | 0.00 | 69 | 1017.8 | |
| 20260905210554 | 67 | 0.0 | 0.0 | 0.00 | 0.00 | 0.00 | 68 | 1017.7 | |
| 20260905210054 | 68 | 0.0 | 0.0 | 0.00 | 0.00 | 0.00 | 67 | 1017.6 | |
| 20260905205554 | 68 | 0.0 | 0.0 | 0.00 | 0.00 | 0.00 | 66 | 1017.4 | |
| 20260905205054 | 68 | 0.0 | 0.0 | 0.00 | 0.00 | 0.00 | 66 | 1017.4 | |
| 20260905204554 | 68 | 0.0 | 0.0 | 0.00 | 0.00 | 0.00 | 66 | 1017.5 | |
| 20260905204054 | 67 | 0.0 | 0.0 | 0.00 | 0.00 | 0.00 | 68 | 1017.4 | |
| 20260905203554 | 67 | 0.0 | 0.0 | 0.00 | 0.00 | 0.00 | 68 | 1017.4 | |
| 20260905203054 | 68 | 0.0 | 0.0 | 0.00 | 0.00 | 0.00 | 67 | 1017.3 | |
| 20260905202554 | 68 | 0.0 | 0.0 | 0.00 | 0.00 | 0.00 | 69 | 1017.3 | |
| 20260905202054 | 68 | 0.0 | 0.0 | 0.00 | 0.00 | 0.00 | 67 | 1017.1 | |
| 20260905201554 | 68 | 0.0 | 0.0 | 0.00 | 0.00 | 0.00 | 66 | 1017.2 | |
| 20260905201056 | 69 | 0.0 | 0.0 | 0.00 | 0.00 | 0.00 | 64 | 1017.1 | |
| 20260905200554 | 70 | 0.0 | 0.0 | 0.00 | 0.00 | 0.00 | 63 | 1017.0 | |
| 20260905200054 | 70 | 0.0 | 0.0 | 0.00 | 0.00 | 0.00 | 64 | 1017.0 | |
| 20260905195554 | 69 | 0.0 | 0.0 | 0.00 | 0.00 | 0.00 | 63 | 1016.9 | |
| 20260905195054 | 70 | 0.0 | 0.0 | 0.00 | 0.00 | 0.00 | 63 | 1016.9 | |
| 20260905194554 | 69 | 0.0 | 0.0 | 0.00 | 0.00 | 0.00 | 65 | 1016.8 | |
| 20260905194054 | 69 | 0.0 | 0.0 | 0.00 | 0.00 | 0.00 | 66 | 1016.7 | |
| 20260905193554 | 69 | 0.0 | 0.0 | 0.00 | 0.00 | 0.00 | 65 | 1016.8 | |
| 20260905193054 | 69 | 0.0 | 0.0 | 0.00 | 0.00 | 0.00 | 66 | 1016.8 | |
| 20260905192554 | 69 | 0.0 | 0.0 | 0.00 | 0.00 | 0.00 | 65 | 1016.6 | |
| 20260905192054 | 70 | 0.0 | 0.0 | 0.00 | 0.00 | 0.00 | 66 | 1016.6 | |
| 20260905191554 | 70 | 0.0 | 0.0 | 0.00 | 0.00 | 0.00 | 66 | 1016.5 | |
| 20260905191058 | 69 | 0.0 | 0.0 | 0.00 | 0.00 | 0.00 | 66 | 1016.5 | |
| 20260905190554 | 69 | 0.0 | 0.0 | 0.00 | 0.00 | 0.00 | 68 | 1016.4 | |
| 20260905190054 | 70 | 0.0 | 0.0 | 0.00 | 0.00 | 0.00 | 68 | 1016.5 | |
| 20260905185554 | 70 | 0.0 | 0.0 | 0.00 | 0.00 | 0.00 | 68 | 1016.3 | |
| 20260905185054 | 70 | 0.0 | 0.0 | 0.00 | 0.00 | 0.00 | 67 | 1016.5 | |
| 20260905184554 | 70 | 0.0 | 0.0 | 0.00 | 0.00 | 0.00 | 66 | 1016.4 | |
| 20260905184054 | 70 | 0.0 | 0.0 | 0.00 | 0.00 | 0.00 | 68 | 1016.3 | |
| 20260905183554 | 70 | 0.0 | 0.0 | 0.00 | 0.00 | 0.00 | 68 | 1016.3 | |
| 20260905183054 | 70 | 0.0 | 0.0 | 0.00 | 0.00 | 0.00 | 69 | 1016.2 | |
| 20260905182554 | 70 | 0.0 | 0.0 | 0.00 | 0.00 | 0.00 | 68 | 1016.0 | |
| 20260905182054 | 70 | 0.0 | 0.0 | 0.00 | 0.00 | 0.00 | 69 | 1016.0 | |
| 20260905181554 | 70 | 0.0 | 0.0 | 0.00 | 0.00 | 0.00 | 70 | 1015.8 | |
| 20260905181054 | 71 | 0.0 | 0.0 | 0.00 | 0.00 | 0.00 | 68 | 1015.8 | |
| 20260905180555 | 72 | 0.0 | 0.0 | 0.00 | 0.00 | 0.00 | 69 | 1015.7 | |
| 20260905180054 | 70 | 0.0 | 0.0 | 0.00 | 0.00 | 0.00 | 70 | 1015.7 | |
| 20260905175554 | 70 | 0.0 | 0.0 | 0.00 | 0.00 | 0.00 | 69 | 1015.6 | |
| 20260905175054 | 71 | 0.0 | 0.0 | 0.00 | 0.00 | 0.00 | 68 | 1015.5 | |
| 20260905174554 | 71 | 0.0 | 0.0 | 0.00 | 0.00 | 0.00 | 68 | 1015.5 | |
| 20260905174054 | 70 | 0.0 | 0.0 | 0.00 | 0.00 | 0.00 | 67 | 1015.7 | |
| 20260905173556 | 70 | 0.0 | 0.0 | 0.00 | 0.00 | 0.00 | 68 | 1015.7 | |
| 20260905173054 | 70 | 0.0 | 0.0 | 0.00 | 0.00 | 0.00 | 66 | 1015.3 | |
| 20260905172554 | 71 | 0.0 | 0.0 | 0.00 | 0.00 | 0.00 | 63 | 1015.1 | |
| 20260905172054 | 71 | 0.0 | 0.0 | 0.00 | 0.00 | 0.00 | 59 | 1015.2 | |
| 20260905171553 | 72 | 0.0 | 0.0 | 0.00 | 0.00 | 0.00 | 55 | 1015.3 | |
| 20260905171054 | 73 | 0.0 | 0.0 | 0.00 | 0.00 | 0.00 | 50 | 1015.3 | |
| 20260905170554 | 75 | 0.0 | 0.0 | 0.00 | 0.00 | 0.00 | 41 | 1015.0 | |
| 20260905170054 | 75 | 0.0 | 0.0 | 0.00 | 0.00 | 0.00 | 39 | 1015.2 | |
| 20260905165554 | 76 | 0.0 | 0.0 | 0.00 | 0.00 | 0.00 | 36 | 1015.2 | |
| 20260905165054 | 76 | 0.0 | 0.0 | 0.00 | 0.00 | 0.00 | 35 | 1015.1 | |
| 20260905164554 | 76 | 0.0 | 0.0 | 0.00 | 0.00 | 0.00 | 35 | 1015.2 | |
| 20260905164054 | 76 | 0.0 | 0.0 | 0.00 | 0.00 | 0.00 | 35 | 1015.3 | |
| 20260905163554 | 76 | 0.0 | 0.0 | 0.00 | 0.00 | 0.00 | 35 | 1015.2 | |
| 20260905163054 | 76 | 0.0 | 0.0 | 0.00 | 0.00 | 0.00 | 35 | 1015.1 | |
| 20260905162554 | 76 | 0.0 | 0.0 | 0.00 | 0.00 | 0.00 | 34 | 1014.9 | |
| 20260905162054 | 76 | 0.0 | 0.0 | 0.00 | 0.00 | 0.00 | 34 | 1015.1 | |
| 20260905161554 | 77 | 0.0 | 0.0 | 0.00 | 0.00 | 0.00 | 34 | 1014.9 | |
| 20260905161054 | 77 | 0.0 | 0.0 | 0.00 | 0.00 | 0.00 | 34 | 1014.9 | |
| 20260905160554 | 77 | 0.0 | 0.0 | 0.00 | 0.00 | 0.00 | 34 | 1014.8 | |
| 20260905160054 | 77 | 0.0 | 0.0 | 0.00 | 0.00 | 0.00 | 34 | 1014.8 | |
| 20260905155553 | 77 | 0.0 | 0.0 | 0.00 | 0.00 | 0.00 | 34 | 1014.8 | |
| 20260905155054 | 78 | 0.0 | 0.0 | 0.00 | 0.00 | 0.00 | 33 | 1014.8 | |
| 20260905154553 | 77 | 0.0 | 0.0 | 0.00 | 0.00 | 0.00 | 35 | 1014.8 | |
| 20260905154056 | 77 | 0.0 | 0.0 | 0.00 | 0.00 | 0.00 | 36 | 1014.8 | |
| 20260905153554 | 77 | 0.0 | 0.0 | 0.00 | 0.00 | 0.00 | 36 | 1014.8 | |
| 20260905153054 | 77 | 0.0 | 0.0 | 0.00 | 0.00 | 0.00 | 36 | 1014.8 | |
| 20260905152554 | 77 | 0.0 | 0.0 | 0.00 | 0.00 | 0.00 | 36 | 1014.9 | |
| 20260905152054 | 76 | 0.0 | 0.0 | 0.00 | 0.00 | 0.00 | 38 | 1014.9 | |
| 20260905151553 | 76 | 0.0 | 0.0 | 0.00 | 0.00 | 0.00 | 38 | 1015.0 | |
| 20260905151054 | 75 | 0.0 | 0.0 | 0.00 | 0.00 | 0.00 | 38 | 1015.0 | |
| 20260905150554 | 75 | 0.0 | 0.0 | 0.00 | 0.00 | 0.00 | 38 | 1015.0 | |
| 20260905150053 | 75 | 0.0 | 0.0 | 0.00 | 0.00 | 0.00 | 39 | 1014.8 | |
| 20260905145553 | 76 | 0.0 | 0.0 | 0.00 | 0.00 | 0.00 | 38 | 1014.8 | |
| 20260905145053 | 76 | 0.0 | 0.0 | 0.00 | 0.00 | 0.00 | 38 | 1014.8 | |
| 20260905144553 | 76 | 0.0 | 0.0 | 0.00 | 0.00 | 0.00 | 38 | 1014.9 | |
| 20260905144054 | 75 | 0.0 | 0.0 | 0.00 | 0.00 | 0.00 | 38 | 1014.7 | |
| 20260905143554 | 75 | 0.0 | 0.0 | 0.00 | 0.00 | 0.00 | 38 | 1015.0 | |
| 20260905143053 | 76 | 0.0 | 0.0 | 0.00 | 0.00 | 0.00 | 38 | 1014.8 | |
| 20260905142554 | 76 | 0.0 | 0.0 | 0.00 | 0.00 | 0.00 | 37 | 1014.7 | |
| 20260905142053 | 77 | 0.0 | 0.0 | 0.00 | 0.00 | 0.00 | 34 | 1014.9 | |
| 20260905141553 | 77 | 0.0 | 0.0 | 0.00 | 0.00 | 0.00 | 32 | 1014.7 | |
| 20260905141053 | 78 | 0.0 | 0.0 | 0.00 | 0.00 | 0.00 | 30 | 1014.6 | |
| 20260905140554 | 79 | 0.0 | 0.0 | 0.00 | 0.00 | 0.00 | 31 | 1014.5 | |
| 20260905140053 | 80 | 0.0 | 0.0 | 0.00 | 0.00 | 0.00 | 30 | 1014.3 | |
| 20260905135553 | 81 | 0.0 | 0.0 | 0.00 | 0.00 | 0.00 | 28 | 1014.3 | |
| 20260905135053 | 83 | 0.0 | 0.0 | 0.00 | 0.00 | 0.00 | 26 | 1013.9 | |
| 20260905134553 | 83 | 0.0 | 0.0 | 0.00 | 0.00 | 0.00 | 26 | 1013.7 | |
| 20260905134054 | 83 | 0.0 | 0.0 | 0.00 | 0.00 | 0.00 | 24 | 1013.7 | |
| 20260905133553 | 84 | 0.0 | 0.0 | 0.00 | 0.00 | 0.00 | 25 | 1013.8 | |
| 20260905133053 | 85 | 0.0 | 0.0 | 0.00 | 0.00 | 0.00 | 23 | 1013.9 | |
| 20260905132553 | 85 | 0.0 | 0.0 | 0.00 | 0.00 | 0.00 | 23 | 1013.7 | |
| 20260905132053 | 86 | 0.0 | 0.0 | 0.00 | 0.00 | 0.00 | 21 | 1013.8 | |
| 20260905131553 | 86 | 0.0 | 0.0 | 0.00 | 0.00 | 0.00 | 20 | 1013.8 | |
| 20260905131053 | 87 | 0.0 | 0.0 | 0.00 | 0.00 | 0.00 | 19 | 1013.8 | |
| 20260905130554 | 87 | 0.0 | 0.0 | 0.00 | 0.00 | 0.00 | 19 | 1013.7 | |
| 20260905130053 | 87 | 0.0 | 0.0 | 0.00 | 0.00 | 0.00 | 19 | 1013.5 | |
| 20260905125553 | 88 | 0.0 | 0.0 | 0.00 | 0.00 | 0.00 | 18 | 1013.5 | |
| 20260905125053 | 87 | 0.0 | 0.0 | 0.00 | 0.00 | 0.00 | 18 | 1013.5 | |
| 20260905124553 | 88 | 0.0 | 0.0 | 0.00 | 0.00 | 0.00 | 18 | 1013.5 | |
| 20260905124053 | 89 | 0.0 | 0.0 | 0.00 | 0.00 | 0.00 | 17 | 1013.5 | |
| 20260905123557 | 90 | 0.0 | 0.0 | 0.00 | 0.00 | 0.00 | 17 | 1013.5 | |
| 20260905123053 | 91 | 0.0 | 0.0 | 0.00 | 0.00 | 0.00 | 16 | 1013.6 | |
| 20260905122553 | 90 | 0.0 | 0.0 | 0.00 | 0.00 | 0.00 | 18 | 1013.3 | |
| 20260905122053 | 89 | 0.0 | 0.0 | 0.00 | 0.00 | 0.00 | 17 | 1013.4 | |
| 20260905121553 | 90 | 0.0 | 0.0 | 0.00 | 0.00 | 0.00 | 17 | 1013.3 | |
| 20260905121053 | 91 | 0.0 | 0.0 | 0.00 | 0.00 | 0.00 | 17 | 1013.3 | |
| 20260905120553 | 91 | 0.0 | 0.0 | 0.00 | 0.00 | 0.00 | 18 | 1013.2 | |
| 20260905120054 | 91 | 0.0 | 0.0 | 0.00 | 0.00 | 0.00 | 18 | 1013.4 | |
| 20260905115553 | 90 | 0.0 | 0.0 | 0.00 | 0.00 | 0.00 | 18 | 1013.4 | |
| 20260905115053 | 91 | 0.0 | 0.0 | 0.00 | 0.00 | 0.00 | 18 | 1013.4 | |
| 20260905114553 | 91 | 0.0 | 0.0 | 0.00 | 0.00 | 0.00 | 18 | 1013.3 | |
| 20260905114053 | 91 | 0.0 | 0.0 | 0.00 | 0.00 | 0.00 | 17 | 1013.2 | |
| 20260905113553 | 91 | 0.0 | 0.0 | 0.00 | 0.00 | 0.00 | 19 | 1013.1 | |
| 20260905113053 | 90 | 0.0 | 0.0 | 0.00 | 0.00 | 0.00 | 19 | 1013.1 | |
| 20260905112553 | 90 | 0.0 | 0.0 | 0.00 | 0.00 | 0.00 | 19 | 1013.1 | |
| 20260905112053 | 91 | 0.0 | 0.0 | 0.00 | 0.00 | 0.00 | 19 | 1013.1 | |
| 20260905111553 | 89 | 0.0 | 0.0 | 0.00 | 0.00 | 0.00 | 19 | 1013.3 | |
| 20260905111053 | 89 | 0.0 | 0.0 | 0.00 | 0.00 | 0.00 | 19 | 1013.3 | |
| 20260905110553 | 89 | 0.0 | 0.0 | 0.00 | 0.00 | 0.00 | 20 | 1013.3 | |
| 20260905110053 | 89 | 0.0 | 0.0 | 0.00 | 0.00 | 0.00 | 21 | 1013.4 | |
| 20260905105553 | 88 | 0.0 | 0.0 | 0.00 | 0.00 | 0.00 | 22 | 1013.3 | |
| 20260905105053 | 88 | 0.0 | 0.0 | 0.00 | 0.00 | 0.00 | 23 | 1013.4 | |
| 20260905104553 | 87 | 0.0 | 0.0 | 0.00 | 0.00 | 0.00 | 23 | 1013.5 | |
| 20260905104053 | 88 | 0.0 | 0.0 | 0.00 | 0.00 | 0.00 | 23 | 1013.6 | |
| 20260905103553 | 88 | 0.0 | 0.0 | 0.00 | 0.00 | 0.00 | 24 | 1013.5 | |
| 20260905103053 | 87 | 0.0 | 0.0 | 0.00 | 0.00 | 0.00 | 25 | 1013.4 | |
| 20260905102553 | 87 | 0.0 | 0.0 | 0.00 | 0.00 | 0.00 | 26 | 1013.6 | |
| 20260905102056 | 87 | 0.0 | 0.0 | 0.00 | 0.00 | 0.00 | 27 | 1013.5 | |
| 20260905101553 | 88 | 0.0 | 0.0 | 0.00 | 0.00 | 0.00 | 28 | 1013.4 | |
| 20260905101053 | 94 | 0.0 | 0.0 | 0.00 | 0.00 | 0.00 | 23 | 1013.2 | |
| 20260905100553 | 92 | 0.0 | 0.0 | 0.00 | 0.00 | 0.00 | 25 | 1013.1 | |
| 20260905100053 | 95 | 0.0 | 0.0 | 0.00 | 0.00 | 0.00 | 22 | 1012.7 | |
| 20260905095553 | 96 | 0.0 | 0.0 | 0.00 | 0.00 | 0.00 | 21 | 1012.7 | |
| 20260905095053 | 99 | 0.0 | 0.0 | 0.00 | 0.00 | 0.00 | 20 | 1012.5 | |
| 20260905094553 | 99 | 0.0 | 0.0 | 0.00 | 0.00 | 0.00 | 19 | 1012.5 | |
| 20260905094053 | 101 | 0.0 | 0.0 | 0.00 | 0.00 | 0.00 | 17 | 1012.3 | |
| 20260905093553 | 101 | 0.0 | 0.0 | 0.00 | 0.00 | 0.00 | 18 | 1012.1 | |
| 20260905093053 | 97 | 0.0 | 0.0 | 0.00 | 0.00 | 0.00 | 20 | 1012.1 | |
| 20260905092553 | 97 | 0.0 | 0.0 | 0.00 | 0.00 | 0.00 | 19 | 1012.1 | |
| 20260905092053 | 98 | 0.0 | 0.0 | 0.00 | 0.00 | 0.00 | 19 | 1012.0 | |
| 20260905091553 | 97 | 0.0 | 0.0 | 0.00 | 0.00 | 0.00 | 21 | 1012.0 | |
| 20260905091053 | 96 | 0.0 | 0.0 | 0.00 | 0.00 | 0.00 | 20 | 1012.0 | |
| 20260905090553 | 96 | 0.0 | 0.0 | 0.00 | 0.00 | 0.00 | 20 | 1011.8 | |
| 20260905090053 | 96 | 0.0 | 0.0 | 0.00 | 0.00 | 0.00 | 20 | 1011.9 | |
| 20260905085553 | 95 | 0.0 | 0.0 | 0.00 | 0.00 | 0.00 | 21 | 1012.0 | |
| 20260905085053 | 97 | 0.0 | 0.0 | 0.00 | 0.00 | 0.00 | 20 | 1011.8 | |
| 20260905084553 | 96 | 0.0 | 0.0 | 0.00 | 0.00 | 0.00 | 20 | 1011.6 | |
| 20260905084053 | 96 | 0.0 | 0.0 | 0.00 | 0.00 | 0.00 | 21 | 1011.6 | |
| 20260905083553 | 96 | 0.0 | 0.0 | 0.00 | 0.00 | 0.00 | 20 | 1011.5 | |
| 20260905083053 | 95 | 0.0 | 0.0 | 0.00 | 0.00 | 0.00 | 20 | 1011.4 | |
| 20260905082553 | 96 | 0.0 | 0.0 | 0.00 | 0.00 | 0.00 | 21 | 1011.4 | |
| 20260905082053 | 95 | 0.0 | 0.0 | 0.00 | 0.00 | 0.00 | 22 | 1011.3 | |
| 20260905081553 | 95 | 0.0 | 0.0 | 0.00 | 0.00 | 0.00 | 22 | 1011.4 | |
| 20260905081053 | 93 | 0.0 | 0.0 | 0.00 | 0.00 | 0.00 | 22 | 1011.4 | |
| 20260905080553 | 94 | 0.0 | 0.0 | 0.00 | 0.00 | 0.00 | 22 | 1011.2 | |
| 20260905080053 | 94 | 0.0 | 0.0 | 0.00 | 0.00 | 0.00 | 21 | 1011.2 | |
| 20260905075553 | 95 | 0.0 | 0.0 | 0.00 | 0.00 | 0.00 | 21 | 1011.0 | |
| 20260905075053 | 93 | 0.0 | 0.0 | 0.00 | 0.00 | 0.00 | 22 | 1010.9 | |
| 20260905074553 | 93 | 0.0 | 0.0 | 0.00 | 0.00 | 0.00 | 22 | 1010.9 | |
| 20260905074053 | 94 | 0.0 | 0.0 | 0.00 | 0.00 | 0.00 | 22 | 1010.9 | |
| 20260905073553 | 93 | 0.0 | 0.0 | 0.00 | 0.00 | 0.00 | 23 | 1010.9 | |
| 20260905073053 | 92 | 0.0 | 0.0 | 0.00 | 0.00 | 0.00 | 24 | 1010.9 | |
| 20260905072553 | 91 | 0.0 | 0.0 | 0.00 | 0.00 | 0.00 | 24 | 1010.8 | |
| 20260905072053 | 90 | 0.0 | 0.0 | 0.00 | 0.00 | 0.00 | 25 | 1010.8 | |
| 20260905071553 | 89 | 0.0 | 0.0 | 0.00 | 0.00 | 0.00 | 25 | 1010.9 | |
| 20260905071053 | 90 | 0.0 | 0.0 | 0.00 | 0.00 | 0.00 | 25 | 1010.8 | |
| 20260905070553 | 89 | 0.0 | 0.0 | 0.00 | 0.00 | 0.00 | 26 | 1010.8 | |
| 20260905070053 | 89 | 0.0 | 0.0 | 0.00 | 0.00 | 0.00 | 26 | 1010.8 | |
| 20260905065553 | 88 | 0.0 | 0.0 | 0.00 | 0.00 | 0.00 | 26 | 1010.9 | |
| 20260905065053 | 88 | 0.0 | 0.0 | 0.00 | 0.00 | 0.00 | 27 | 1010.9 | |
| 20260905064553 | 87 | 0.0 | 0.0 | 0.00 | 0.00 | 0.00 | 27 | 1010.8 | |
| 20260905064053 | 87 | 0.0 | 0.0 | 0.00 | 0.00 | 0.00 | 27 | 1010.7 | |
| 20260905063553 | 86 | 0.0 | 0.0 | 0.00 | 0.00 | 0.00 | 28 | 1010.8 | |
| 20260905063053 | 86 | 0.0 | 0.0 | 0.00 | 0.00 | 0.00 | 28 | 1010.7 | |
| 20260905062553 | 85 | 0.0 | 0.0 | 0.00 | 0.00 | 0.00 | 28 | 1010.7 | |
| 20260905062053 | 84 | 0.0 | 0.0 | 0.00 | 0.00 | 0.00 | 29 | 1010.7 | |
| 20260905061553 | 84 | 0.0 | 0.0 | 0.00 | 0.00 | 0.00 | 30 | 1010.8 | |
| 20260905061053 | 83 | 0.0 | 0.0 | 0.00 | 0.00 | 0.00 | 30 | 1010.9 | |
| 20260905060553 | 83 | 0.0 | 0.0 | 0.00 | 0.00 | 0.00 | 30 | 1010.9 | |
| 20260905060053 | 83 | 0.0 | 0.0 | 0.00 | 0.00 | 0.00 | 31 | 1010.9 | |
| 20260905055553 | 82 | 0.0 | 0.0 | 0.00 | 0.00 | 0.00 | 31 | 1010.9 | |
| 20260905055053 | 82 | 0.0 | 0.0 | 0.00 | 0.00 | 0.00 | 32 | 1010.9 | |
| 20260905054553 | 81 | 0.0 | 0.0 | 0.00 | 0.00 | 0.00 | 33 | 1010.8 | |
| 20260905054053 | 80 | 0.0 | 0.0 | 0.00 | 0.00 | 0.00 | 33 | 1010.8 | |
| 20260905053553 | 80 | 0.0 | 0.0 | 0.00 | 0.00 | 0.00 | 33 | 1010.8 | |
| 20260905053053 | 79 | 0.0 | 0.0 | 0.00 | 0.00 | 0.00 | 34 | 1010.9 | |
| 20260905052553 | 79 | 0.0 | 0.0 | 0.00 | 0.00 | 0.00 | 34 | 1010.8 | |
| 20260905052053 | 80 | 0.0 | 0.0 | 0.00 | 0.00 | 0.00 | 34 | 1010.8 | |
| 20260905051553 | 78 | 0.0 | 0.0 | 0.00 | 0.00 | 0.00 | 34 | 1010.8 | |
| 20260905051053 | 78 | 0.0 | 0.0 | 0.00 | 0.00 | 0.00 | 35 | 1010.8 | |
| 20260905050553 | 79 | 0.0 | 0.0 | 0.00 | 0.00 | 0.00 | 34 | 1010.8 | |
| 20260905050053 | 78 | 0.0 | 0.0 | 0.00 | 0.00 | 0.00 | 34 | 1010.8 | |
| 20260905045553 | 78 | 0.0 | 0.0 | 0.00 | 0.00 | 0.00 | 34 | 1010.8 | |
| 20260905045053 | 78 | 0.0 | 0.0 | 0.00 | 0.00 | 0.00 | 34 | 1010.7 | |
| 20260905044553 | 78 | 0.0 | 0.0 | 0.00 | 0.00 | 0.00 | 35 | 1010.7 | |
| 20260905044053 | 77 | 0.0 | 0.0 | 0.00 | 0.00 | 0.00 | 35 | 1010.6 | |
| 20260905043553 | 77 | 0.0 | 0.0 | 0.00 | 0.00 | 0.00 | 35 | 1010.6 | |
| 20260905043053 | 78 | 0.0 | 0.0 | 0.00 | 0.00 | 0.00 | 34 | 1010.6 | |
| 20260905042553 | 77 | 0.0 | 0.0 | 0.00 | 0.00 | 0.00 | 35 | 1010.6 | |
| 20260905042053 | 78 | 0.0 | 0.0 | 0.00 | 0.00 | 0.00 | 34 | 1010.6 | |
| 20260905041553 | 78 | 0.0 | 0.0 | 0.00 | 0.00 | 0.00 | 34 | 1010.6 | |
| 20260905041053 | 78 | 0.0 | 0.0 | 0.00 | 0.00 | 0.00 | 34 | 1010.5 | |
| 20260905040553 | 78 | 0.0 | 0.0 | 0.00 | 0.00 | 0.00 | 34 | 1010.4 | |
| 20260905040053 | 78 | 0.0 | 0.0 | 0.00 | 0.00 | 0.00 | 34 | 1010.5 | |
| 20260905035553 | 78 | 0.0 | 0.0 | 0.00 | 0.00 | 0.00 | 34 | 1010.5 | |
| 20260905035053 | 78 | 0.0 | 0.0 | 0.00 | 0.00 | 0.00 | 34 | 1010.4 | |
| 20260905034553 | 78 | 0.0 | 0.0 | 0.00 | 0.00 | 0.00 | 34 | 1010.4 | |
| 20260905034053 | 77 | 0.0 | 0.0 | 0.00 | 0.00 | 0.00 | 35 | 1010.4 | |
| 20260905033553 | 78 | 0.0 | 0.0 | 0.00 | 0.00 | 0.00 | 34 | 1010.3 | |
| 20260905033053 | 78 | 0.0 | 0.0 | 0.00 | 0.00 | 0.00 | 34 | 1010.4 | |
| 20260905032553 | 78 | 0.0 | 0.0 | 0.00 | 0.00 | 0.00 | 34 | 1010.4 | |
| 20260905032053 | 77 | 0.0 | 0.0 | 0.00 | 0.00 | 0.00 | 34 | 1010.4 | |
| 20260905031553 | 78 | 0.0 | 0.0 | 0.00 | 0.00 | 0.00 | 34 | 1010.3 | |
| 20260905031053 | 78 | 0.0 | 0.0 | 0.00 | 0.00 | 0.00 | 34 | 1010.3 | |
| 20260905030553 | 78 | 0.0 | 0.0 | 0.00 | 0.00 | 0.00 | 33 | 1010.3 | |
| 20260905030053 | 78 | 0.0 | 0.0 | 0.00 | 0.00 | 0.00 | 34 | 1010.4 | |
| 20260905025553 | 78 | 0.0 | 0.0 | 0.00 | 0.00 | 0.00 | 33 | 1010.4 | |
| 20260905025053 | 78 | 0.0 | 0.0 | 0.00 | 0.00 | 0.00 | 34 | 1010.3 | |
| 20260905024553 | 78 | 0.0 | 0.0 | 0.00 | 0.00 | 0.00 | 33 | 1010.3 | |
| 20260905024053 | 79 | 0.0 | 0.0 | 0.00 | 0.00 | 0.00 | 33 | 1010.2 | |
| 20260905023553 | 79 | 0.0 | 0.0 | 0.00 | 0.00 | 0.00 | 33 | 1010.2 | |
| 20260905023053 | 78 | 0.0 | 0.0 | 0.00 | 0.00 | 0.00 | 33 | 1010.3 | |
| 20260905022553 | 78 | 0.0 | 0.0 | 0.00 | 0.00 | 0.00 | 33 | 1010.3 | |
| 20260905022053 | 79 | 0.0 | 0.0 | 0.00 | 0.00 | 0.00 | 33 | 1010.2 | |
| 20260905021553 | 78 | 0.0 | 0.0 | 0.00 | 0.00 | 0.00 | 34 | 1010.4 | |
| 20260905021053 | 78 | 0.0 | 0.0 | 0.00 | 0.00 | 0.00 | 33 | 1010.3 | |
| 20260905020553 | 78 | 0.0 | 0.0 | 0.00 | 0.00 | 0.00 | 33 | 1010.3 | |
| 20260905020053 | 78 | 0.0 | 0.0 | 0.00 | 0.00 | 0.00 | 34 | 1010.5 | |
| 20260905015553 | 78 | 0.0 | 0.0 | 0.00 | 0.00 | 0.00 | 33 | 1010.4 | |
| 20260905015053 | 78 | 0.0 | 0.0 | 0.00 | 0.00 | 0.00 | 33 | 1010.4 | |
| 20260905014553 | 79 | 0.0 | 0.0 | 0.00 | 0.00 | 0.00 | 33 | 1010.5 | |
| 20260905014053 | 79 | 0.0 | 0.0 | 0.00 | 0.00 | 0.00 | 32 | 1010.4 | |
| 20260905013553 | 79 | 0.0 | 0.0 | 0.00 | 0.00 | 0.00 | 33 | 1010.6 | |
| 20260905013053 | 79 | 0.0 | 0.0 | 0.00 | 0.00 | 0.00 | 32 | 1010.5 | |
| 20260905012553 | 79 | 0.0 | 0.0 | 0.00 | 0.00 | 0.00 | 32 | 1010.5 | |
| 20260905012053 | 79 | 0.0 | 0.0 | 0.00 | 0.00 | 0.00 | 32 | 1010.5 | |
| 20260905011553 | 79 | 0.0 | 0.0 | 0.00 | 0.00 | 0.00 | 32 | 1010.4 | |
| 20260905011053 | 80 | 0.0 | 0.0 | 0.00 | 0.00 | 0.00 | 32 | 1010.4 | |
| 20260905010553 | 80 | 0.0 | 0.0 | 0.00 | 0.00 | 0.00 | 32 | 1010.4 | |
| 20260905010053 | 80 | 0.0 | 0.0 | 0.00 | 0.00 | 0.00 | 32 | 1010.4 | |
| 20260905005553 | 80 | 0.0 | 0.0 | 0.00 | 0.00 | 0.00 | 31 | 1010.4 | |
| 20260905005053 | 80 | 0.0 | 0.0 | 0.00 | 0.00 | 0.00 | 31 | 1010.4 | |
| 20260905004553 | 80 | 0.0 | 0.0 | 0.00 | 0.00 | 0.00 | 31 | 1010.4 | |
| 20260905004053 | 81 | 0.0 | 0.0 | 0.00 | 0.00 | 0.00 | 31 | 1010.5 | |
| 20260905003554 | 80 | 0.0 | 0.0 | 0.00 | 0.00 | 0.00 | 31 | 1010.4 | |
| 20260905003053 | 81 | 0.0 | 0.0 | 0.00 | 0.00 | 0.00 | 30 | 1010.4 |